Cheboygan, MI

3:13 AM EDT on May 01, 2017 (GMT -0400)
Cheboygan

Weather History for KSLH - March, 2014

Change the Weather History Date:

Saturday, March 8, 2014

  Actual Average (KMCD) Record (KMCD)
Temperature  
Mean Temperature 14 °F -  
Max Temperature 26 °F 26 °F 53 °F (2016)
Min Temperature 1 °F 13 °F -6 °F (1982)
Degree Days  
Heating Degree Days 51    
Moisture  
Dew Point 11 °F    
Average Humidity 77    
Maximum Humidity 96    
Minimum Humidity 55    
Precipitation  
Precipitation 0.00 in - - ()
Sea Level Pressure  
Sea Level Pressure 30.13 in    
Wind  
Wind Speed 8 mph (NW)    
Max Wind Speed 13 mph    
Max Gust Speed 18 mph    
Visibility 10 miles    
Events      
Averages and records for this station are not official NWS values.
T = Trace of Precipitation, MM = Missing Value Source: NWS Daily Summary

Daily Weather History Graph

Daily Weather History Graph

Search for Another Location

Airport or City:

Trip Planner

Search our weather history database for the weather conditions in past years. The results will help you decide how hot, cold, wet, or windy it might be!

Date:

Astronomy

Mar. 08, 2014 Rise Set
Actual Time 7:03 AM EST 6:34 PM EST
Civil Twilight 6:34 AM EST 7:04 PM EST
Nautical Twilight 5:59 AM EST 7:38 PM EST
Astronomical Twilight 5:25 AM EST 8:13 PM EST
Moon 11:25 AM EST (3/8) 1:50 AM EST (3/8)
Length of Visible Light 12h 30m
Length of Day
11h 30m
First Quarter, 51% of the Moon is Illuminated
Mar 8
First Quarter
Mar 16
Full
Mar 23
Last Quarter
Mar 30
New
Apr 7
First Quarter

Hourly Weather History & Observations

Time (EST) Temp. Windchill Dew Point Humidity Pressure Visibility Wind Dir Wind Speed Gust Speed Precip Events Conditions
12:15 AM 26.1 °F 15.0 °F 22.8 °F 88% 29.97 in 7.0 mi NNW 12.7 mph 18.4 mph N/A   Overcast
12:35 AM 25.7 °F 15.7 °F 21.9 °F 86% 29.98 in 10.0 mi NNW 10.4 mph 18.4 mph N/A   Overcast
12:55 AM 25.0 °F 14.8 °F 21.6 °F 87% 29.99 in 10.0 mi NNW 10.4 mph - N/A   Overcast
1:16 AM 24.6 °F 14.4 °F 20.7 °F 85% 30.00 in 10.0 mi NNW 10.4 mph - N/A   Overcast
1:35 AM 23.7 °F 13.3 °F 20.1 °F 86% 30.01 in 10.0 mi NNW 10.4 mph - N/A   Mostly Cloudy
1:55 AM 22.1 °F 11.3 °F 19.4 °F 89% 30.02 in 10.0 mi NNW 10.4 mph - N/A   Scattered Clouds
2:16 AM 21.0 °F 9.9 °F 18.5 °F 90% 30.03 in 10.0 mi NW 10.4 mph - N/A   Clear
2:35 AM 20.1 °F 11.3 °F 18.0 °F 91% 30.03 in 10.0 mi NNW 6.9 mph - N/A   Clear
2:55 AM 19.4 °F 10.4 °F 17.2 °F 91% 30.03 in 10.0 mi NNW 6.9 mph - N/A   Clear
3:16 AM 18.5 °F 9.3 °F 16.7 °F 93% 30.03 in 10.0 mi NNW 6.9 mph - N/A   Clear
3:35 AM 18.3 °F 9.1 °F 16.7 °F 93% 30.04 in 7.0 mi NW 6.9 mph - N/A   Clear
3:55 AM 18.1 °F 7.9 °F 16.7 °F 94% 30.05 in 7.0 mi NW 8.1 mph - N/A   Clear
4:16 AM 17.8 °F 8.5 °F 16.7 °F 96% 30.05 in 7.0 mi NW 6.9 mph - N/A   Clear
4:35 AM 17.6 °F 6.4 °F 16.7 °F 96% 30.06 in 7.0 mi NW 9.2 mph - N/A   Clear
4:55 AM 17.8 °F 7.5 °F 16.5 °F 95% 30.07 in 7.0 mi NW 8.1 mph - N/A   Clear
5:15 AM 16.7 °F 6.2 °F 15.4 °F 95% 30.08 in 10.0 mi NW 8.1 mph - N/A   Clear
5:36 AM 16.2 °F 5.5 °F 14.5 °F 93% 30.09 in 10.0 mi NW 8.1 mph - N/A   Clear
5:55 AM 15.4 °F 4.6 °F 13.8 °F 93% 30.10 in 10.0 mi NW 8.1 mph - N/A   Clear
6:15 AM 14.7 °F 3.8 °F 13.1 °F 93% 30.11 in 10.0 mi NNW 8.1 mph - N/A   Clear
6:35 AM 14.4 °F 4.3 °F 12.4 °F 92% 30.12 in 10.0 mi NW 6.9 mph - N/A   Clear
6:55 AM 13.3 °F 3.0 °F 11.5 °F 93% 30.13 in 10.0 mi NNW 6.9 mph - N/A   Clear
7:15 AM 12.4 °F 2.0 °F 10.4 °F 92% 30.13 in 10.0 mi NW 6.9 mph - N/A   Clear
7:35 AM 12.2 °F 1.7 °F 10.2 °F 92% 30.14 in 10.0 mi NW 6.9 mph - N/A   Clear
7:55 AM 12.6 °F 2.2 °F 10.4 °F 91% 30.15 in 10.0 mi NNW 6.9 mph - N/A   Clear
8:16 AM 13.6 °F 3.5 °F 10.4 °F 87% 30.16 in 10.0 mi NW 6.9 mph - N/A   Clear
8:35 AM 14.0 °F 3.9 °F 10.6 °F 86% 30.16 in 10.0 mi NNW 6.9 mph - N/A   Clear
8:55 AM 14.7 °F 4.8 °F 10.4 °F 83% 30.17 in 10.0 mi NW 6.9 mph - N/A   Clear
9:16 AM 15.4 °F 5.6 °F 10.4 °F 80% 30.17 in 10.0 mi NW 6.9 mph - N/A   Clear
9:35 AM 16.2 °F 10.6 °F 10.4 °F 78% 30.18 in 10.0 mi NNW 3.5 mph - N/A   Clear
9:55 AM 17.1 °F 10.0 °F 10.8 °F 76% 30.18 in 10.0 mi North 4.6 mph - N/A   Clear
10:15 AM 18.1 °F 11.3 °F 10.9 °F 73% 30.18 in 10.0 mi North 4.6 mph - N/A   Clear
10:35 AM 18.7 °F 11.9 °F 11.1 °F 72% 30.19 in 10.0 mi North 4.6 mph - N/A   Clear
10:56 AM 19.2 °F 11.3 °F 11.1 °F 71% 30.18 in 10.0 mi NNW 5.8 mph - N/A   Clear
11:15 AM 19.9 °F 14.9 °F 11.3 °F 69% 30.19 in 10.0 mi NW 3.5 mph - N/A   Clear
11:35 AM 20.8 °F - 11.8 °F 68% 30.18 in 10.0 mi Calm Calm - N/A   Scattered Clouds
11:55 AM 21.0 °F 16.2 °F 11.7 °F 67% 30.19 in 10.0 mi NNW 3.5 mph - N/A   Scattered Clouds
12:15 PM 21.9 °F 13.4 °F 11.8 °F 65% 30.19 in 10.0 mi NNW 6.9 mph - N/A   Clear
12:35 PM 21.7 °F 12.3 °F 12.7 °F 68% 30.18 in 10.0 mi NW 8.1 mph - N/A   Clear
12:55 PM 22.1 °F 12.0 °F 13.6 °F 70% 30.18 in 10.0 mi North 9.2 mph - N/A   Clear
1:15 PM 22.5 °F 13.2 °F 14.0 °F 70% 30.17 in 10.0 mi North 8.1 mph - N/A   Scattered Clouds
1:36 PM 22.8 °F 13.6 °F 14.0 °F 69% 30.17 in 10.0 mi North 8.1 mph - N/A   Scattered Clouds
1:55 PM 23.0 °F 12.4 °F 14.5 °F 70% 30.17 in 10.0 mi North 10.4 mph - N/A   Clear
2:15 PM 23.4 °F 13.5 °F 14.7 °F 70% 30.15 in 10.0 mi North 9.2 mph - N/A   Clear
2:36 PM 23.5 °F 14.5 °F 14.7 °F 69% 30.15 in 10.0 mi North 8.1 mph - N/A   Clear
2:55 PM 23.9 °F 15.8 °F 14.9 °F 69% 30.14 in 10.0 mi North 6.9 mph - N/A   Clear
3:15 PM 23.9 °F 15.0 °F 14.7 °F 68% 30.14 in 10.0 mi North 8.1 mph - N/A   Clear
3:36 PM 23.9 °F 13.5 °F 13.6 °F 65% 30.13 in 10.0 mi North 10.4 mph - N/A   Clear
3:55 PM 23.5 °F 14.5 °F 13.5 °F 65% 30.13 in 10.0 mi North 8.1 mph - N/A   Clear
4:15 PM 23.9 °F 14.2 °F 13.5 °F 64% 30.13 in 10.0 mi North 9.2 mph - N/A   Clear
4:35 PM 23.7 °F 13.3 °F 12.4 °F 62% 30.13 in 10.0 mi North 10.4 mph - N/A   Clear
4:55 PM 23.9 °F 15.8 °F 12.0 °F 61% 30.12 in 10.0 mi NNW 6.9 mph - N/A   Clear
5:15 PM 24.1 °F 13.7 °F 11.1 °F 58% - 10.0 mi NW 10.4 mph - N/A   Clear
5:35 PM 23.0 °F 11.7 °F 10.2 °F 58% 30.13 in 10.0 mi WNW 11.5 mph - N/A   Clear
5:55 PM 22.5 °F 11.1 °F 9.1 °F 57% 30.13 in 10.0 mi WNW 11.5 mph - N/A   Clear
6:16 PM 21.9 °F 10.4 °F 7.9 °F 55% 30.14 in 10.0 mi WNW 11.5 mph - N/A   Clear
6:35 PM 20.7 °F 9.5 °F 6.8 °F 55% 30.14 in 10.0 mi West 10.4 mph - N/A   Clear
6:54 PM 19.9 °F 8.6 °F 6.4 °F 56% 30.14 in 10.0 mi West 10.4 mph - N/A   Clear
7:15 PM 18.0 °F 8.7 °F 6.4 °F 61% 30.15 in 10.0 mi WNW 6.9 mph - N/A   Clear
7:35 PM 16.0 °F 8.8 °F 5.5 °F 63% 30.16 in 10.0 mi WNW 4.6 mph - N/A   Clear
7:55 PM 15.3 °F 6.6 °F 5.7 °F 66% 30.16 in 10.0 mi NW 5.8 mph - N/A   Clear
8:15 PM 13.6 °F 6.0 °F 4.8 °F 68% 30.17 in 10.0 mi NNW 4.6 mph - N/A   Clear
8:35 PM 12.6 °F 6.5 °F 4.1 °F 69% 30.17 in 10.0 mi NW 3.5 mph - N/A   Clear
8:55 PM 11.8 °F 5.7 °F 4.3 °F 72% 30.17 in 10.0 mi NW 3.5 mph - N/A   Clear
9:15 PM 10.4 °F 2.2 °F 3.2 °F 73% 30.18 in 10.0 mi NW 4.6 mph - N/A   Clear
9:35 PM 9.7 °F 3.2 °F 3.0 °F 74% 30.18 in 10.0 mi NW 3.5 mph - N/A   Clear
9:55 PM 8.6 °F - 2.8 °F 77% 30.18 in 10.0 mi Calm Calm - N/A   Clear
10:16 PM 5.0 °F - -0.2 °F 79% 30.17 in 10.0 mi Calm Calm - N/A   Clear
10:35 PM 5.9 °F -1.1 °F 1.6 °F 82% 30.16 in 10.0 mi SW 3.5 mph - N/A   Clear
10:55 PM 5.9 °F -3.0 °F 1.8 °F 83% 30.16 in 10.0 mi SW 4.6 mph - N/A   Clear
11:16 PM 3.9 °F -5.3 °F 0.5 °F 86% 30.16 in 10.0 mi SW 4.6 mph - N/A   Clear
11:35 PM 2.3 °F -5.2 °F -1.5 °F 84% 30.16 in 10.0 mi SW 3.5 mph - N/A   Clear
11:55 PM 1.4 °F -6.2 °F -2.0 °F 86% 30.15 in 10.0 mi SW 3.5 mph - N/A   Clear